Weather in Letnik

Russia / Rostov Oblast     46°00′09″N   41°16′04″E
temp.,
°C
wind,
m/s
gust,
m/s
humid.,
%
clouds,
%
prec.,
mm/h
press.,
hPa
HPBL,
m
17 may, mon
mon1700:00+19ese61550100 0.0 1004409
03:00+16e61355100 0.0 1004282
06:00+14e47715 0.0 1004144
09:00+20nnw34602 0.0 1006407
12:00+25wnw4656100 0.0 10071109
15:00+26nw455616 0.0 10061476
18:00+22wnw61076100 0.0 1006418
21:00+17w51288100 1.4 1008272
18 may, tue
tue1800:00+17wsw61396100 5.8 1008600
03:00+15w51096100 9.4 1009472
06:00+15w499682 1.5 1011529
09:00+18w678156 1.5 1011786
12:00+21w576590 0.0 10111237
15:00+22w566098 0.0 10101669
18:00+21w34735 0.2 1011262
21:00+16sw22804 0.2 101111
19 may, wed
wed1900:00+15sse2286100 0.0 101012
03:00+14sse2289100 0.0 100911
06:00+15wsw2290100 0.4 101064
09:00+15w4898100 8.1 1011583
12:00+15wsw4890100 8.4 1013715
15:00+19wsw81068100 8.9 10131434
18:00+16wsw812825 0.7 1013959
21:00+13sw714845 0.8 1015578
20 may, thu
thu2000:00+13wsw716800 0.0 1015750
03:00+12wsw615831 0.0 1015632
06:00+12ssw310881 0.0 1016388
09:00+16sw57735 0.0 1016809
12:00+20sw34610 0.0 10161228
15:00+22ssw12530 0.0 10151312
18:00+20e236599 0.0 101590
21:00+15e47729 0.0 1014106
21 may, fri
fri2100:00+14e49750 0.0 1013143
03:00+13e512785 0.0 1012212
06:00+14e514776 0.0 1012301
09:00+20ese7136545 0.0 1012533
12:00+24ese810575 0.0 1011801
15:00+27ese710590 0.0 1010966
18:00+24ese511675 0.0 1009392
21:00+18e411811 0.0 1010195